Search for airport 
image banner adimage banner ad
image banner ad

DAAJ - Djanet / Tiska

Located in Djanet, Algeria

ICAO - DAAJ, IATA - DJG

Data provided by Airmate  

General information

Coordinates: N24°17'35" E9°27'7"
Elevation is 3169 feet MSL.
 
View others Airports in Illizi Province

Operational data

Open for public use
Current time UTC:
Current local time:
Weather
METAR: DAAJ 291100Z 15004KT CAVOK 27/M01 Q1023
TAF: TAF DAAJ 290500Z 2906/3006 VRB02KT CAVOK BECMG 2912/2915 22010KT BECMG 2918/2921 06010KT
View NOTAMs / SUP AIP / TFR affecting this airport [VIEW]
Communications frequencies: [VIEW]

Runways:

RWY identifierQFULength (ft)Width (ft)SurfaceLDA (ft)
0222°7874148ASP
20202°7874148
12125°9843148
30305°9843148

Airport contact information

Address: Djanet Algeria

Satellite view of DAAJ